Ogden Hill AFB, UT

6:19 AM MDT on June 28, 2017 (GMT -0600)
Hill Air Force Base

Weather History for KHIF - September, 2013

Change the Weather History Date:

Sunday, September 1, 2013

  Actual Average Record
Temperature  
Mean Temperature 75 °F -  
Max Temperature 84 °F 78 °F 93 °F (2004)
Min Temperature 68 °F 57 °F 44 °F (2008)
Cooling Degree Days 10    
Growing Degree Days 25 (Base 50)    
Moisture  
Dew Point 53 °F    
Average Humidity 44    
Maximum Humidity 54    
Minimum Humidity 36    
Precipitation  
Precipitation 0.00 in - - ()
Sea Level Pressure  
Sea Level Pressure 29.94 in    
Wind  
Wind Speed 7 mph (ESE)    
Max Wind Speed 14 mph    
Max Gust Speed -    
Visibility 10 miles    
Events Rain    
Averages and records for this station are not official NWS values.
T = Trace of Precipitation, MM = Missing Value Source: NWS Daily Summary

Daily Weather History Graph

Daily Weather History Graph

Search for Another Location

Airport or City:

Trip Planner

Search our weather history database for the weather conditions in past years. The results will help you decide how hot, cold, wet, or windy it might be!

Date:

Astronomy

Sep. 01, 2013 Rise Set
Actual Time 6:54 AM MDT 7:59 PM MDT
Civil Twilight 6:26 AM MDT 8:28 PM MDT
Nautical Twilight 5:52 AM MDT 9:01 PM MDT
Astronomical Twilight 5:17 AM MDT 9:36 PM MDT
Moon 3:18 AM MDT (9/1) 5:40 PM MDT (9/1)
Length of Visible Light 14h 01m
Length of Day
13h 05m
Waning Crescent, 13% of the Moon is Illuminated
Sep 1
Waning Crescent
Sep 5
New
Sep 12
First Quarter
Sep 19
Full
Sep 26
Last Quarter

Hourly Weather History & Observations

Time (MDT) Temp. Heat Index Dew Point Humidity Pressure Visibility Wind Dir Wind Speed Gust Speed Precip Events Conditions
12:29 AM 75.2 °F - 50.0 °F 41% 30.08 in 10.0 mi ESE 9.2 mph - N/A Rain Light Rain
12:40 AM 75.2 °F - 50.0 °F 41% 30.08 in 10.0 mi ESE 10.4 mph - N/A   Overcast
12:58 AM 75.7 °F - 51.1 °F 42% 29.88 in 10.0 mi SE 3.5 mph - 0.00 in   Overcast
1:58 AM 74.5 °F - 50.2 °F 42% 29.88 in 10.0 mi ESE 6.9 mph - N/A   Overcast
2:58 AM 71.1 °F - 51.1 °F 49% 29.90 in 10.0 mi South 4.6 mph - N/A   Mostly Cloudy
3:58 AM 70.2 °F - 50.7 °F 50% 29.90 in 10.0 mi ESE 9.2 mph - N/A   Clear
4:58 AM 68.7 °F - 51.1 °F 53% 29.90 in 10.0 mi ESE 10.4 mph - N/A   Partly Cloudy
5:58 AM 68.2 °F - 50.7 °F 54% 29.90 in 10.0 mi ESE 11.5 mph - N/A   Mostly Cloudy
6:58 AM 69.1 °F - 50.7 °F 52% 29.90 in 10.0 mi ESE 11.5 mph - N/A   Overcast
7:58 AM 68.7 °F - 50.0 °F 51% 29.92 in 10.0 mi ESE 12.7 mph - N/A   Overcast
8:58 AM 70.0 °F - 50.2 °F 49% 29.92 in 10.0 mi ESE 12.7 mph - N/A   Overcast
9:58 AM 72.1 °F - 51.1 °F 47% 29.94 in 10.0 mi ESE 11.5 mph - N/A   Overcast
10:58 AM 72.7 °F - 51.6 °F 47% 29.94 in 10.0 mi ESE 5.8 mph - N/A   Overcast
11:58 AM 73.6 °F - 52.0 °F 47% 29.94 in 10.0 mi East 6.9 mph - N/A   Overcast
12:58 PM 75.9 °F - 52.0 °F 43% 29.94 in 10.0 mi ESE 5.8 mph - N/A   Overcast
1:58 PM 79.2 °F - 52.5 °F 39% 29.92 in 10.0 mi Variable 2.3 mph - N/A   Mostly Cloudy
2:58 PM 80.6 °F - 52.2 °F 37% 29.90 in 10.0 mi ENE 1.2 mph - N/A   Overcast
3:07 PM 80.6 °F 80.3 °F 53.6 °F 39% 30.08 in 10.0 mi South 3.5 mph - N/A Rain Light Rain
3:16 PM 80.6 °F 80.3 °F 53.6 °F 39% 30.07 in 10.0 mi South 4.6 mph - N/A   Overcast
3:58 PM 81.1 °F - 52.9 °F 37% 29.87 in 10.0 mi Variable 1.2 mph - 0.00 in   Mostly Cloudy
4:58 PM 82.9 °F 81.8 °F 53.1 °F 36% 29.85 in 10.0 mi NNE 3.5 mph - N/A   Mostly Cloudy
5:58 PM 81.9 °F - 52.7 °F 36% 29.84 in 10.0 mi NNE 2.3 mph - N/A   Overcast
6:58 PM 80.6 °F 80.4 °F 54.5 °F 40% 29.83 in 10.0 mi ENE 2.3 mph - N/A   Overcast
7:58 PM 79.5 °F - 54.9 °F 42% 29.84 in 10.0 mi NNE 2.3 mph - N/A   Overcast
8:23 PM 78.8 °F - 55.4 °F 44% 30.02 in 10.0 mi East 2.3 mph - N/A   Overcast
8:33 PM 78.8 °F - 55.4 °F 44% 30.02 in 10.0 mi ESE 2.3 mph - N/A   Overcast
8:43 PM 78.8 °F - 55.4 °F 44% 30.03 in 10.0 mi SE 2.3 mph - N/A   Overcast
8:48 PM 78.8 °F - 55.4 °F 44% 30.03 in 10.0 mi SE 2.3 mph - N/A   Overcast
8:58 PM 77.9 °F - 55.4 °F 46% 29.86 in 10.0 mi ESE 3.5 mph - N/A   Overcast
9:03 PM 77.0 °F - 55.4 °F 47% 30.03 in 10.0 mi ESE 3.5 mph - N/A   Overcast
9:18 PM 78.8 °F - 53.6 °F 42% 30.03 in 10.0 mi SE 5.8 mph - N/A   Overcast
9:58 PM 77.7 °F - 54.5 °F 45% 29.86 in 10.0 mi East 4.6 mph - N/A   Overcast
10:58 PM 77.5 °F - 54.0 °F 44% 29.86 in 10.0 mi SSE 4.6 mph - N/A   Overcast
11:58 PM 77.5 °F - 55.9 °F 47% 29.87 in 10.0 mi South 13.8 mph - N/A   Overcast